Temp
-20 -20 -20 -21 -21 -20 -20 -20 -19 -19 -19 -19 -18 -18 -18 -18 -17 -17 -17 -17 -17 -18 -17 -17 -17 -17 -16 -16 -16 -15 -15 -15 -14 -12 -12 -12 -12 -11 -12 -12 -10 -11 -11 -10 -10 -10 -10 -11 -9 -10 -9 -8 -9 -9
-21 -21 -21 -21 -21 -20 -20 -20 -20 -19 -19 -19 -18 -18 -18 -18 -17 -17 -18 -18 -18 -18 -18 -17 -17 -17 -17 -17 -18 -17 -16 -15 -14 -13 -12 -13 -14 -13 -12 -12 -11 -11 -10 -10 -10 -10 -10 -10 -10 -10 -9 -10 -10 -10
-22 -21 -21 -21 -21 -21 -20 -20 -20 -20 -19 -19 -18 -18 -18 -18 -18 -18 -18 -18 -18 -18 -18 -18 -18 -18 -18 -18 -18 -18 -17 -16 -15 -15 -14 -13 -13 -13 -12 -12 -12 -11 -11 -11 -10 -9 -9 -10 -10 -10 -10 -10 -10 -11
-22 -22 -22 -21 -21 -21 -20 -20 -20 -20 -20 -19 -18 -18 -18 -18 -18 -18 -18 -18 -18 -18 -18 -19 -18 -18 -19 -19 -18 -18 -17 -16 -14 -15 -15 -14 -13 -13 -12 -12 -11 -11 -11 -11 -11 -10 -10 -11 -10 -10 -10 -10 -12 -11
-22 -22 -22 -22 -21 -21 -20 -20 -20 -20 -20 -19 -19 -18 -18 -18 -18 -18 -17 -17 -18 -18 -18 -19 -19 -19 -19 -19 -19 -18 -17 -16 -16 -16 -16 -16 -15 -13 -13 -13 -12 -12 -11 -11 -11 -11 -11 -10 -10 -11 -10 -11 -11 -11
-22 -22 -22 -22 -21 -21 -21 -20 -20 -20 -20 -19 -19 -19 -19 -18 -18 -18 -18 -18 -17 -17 -18 -19 -19 -19 -19 -19 -19 -18 -18 -18 -17 -16 -16 -16 -16 -14 -13 -13 -13 -12 -12 -11 -11 -12 -12 -11 -11 -11 -11 -11 -12 -11
-23 -23 -22 -22 -22 -21 -21 -21 -20 -20 -20 -20 -19 -19 -19 -19 -18 -18 -18 -18 -18 -18 -17 -18 -19 -19 -19 -20 -19 -19 -19 -19 -18 -18 -17 -16 -15 -15 -15 -14 -13 -13 -13 -13 -11 -12 -12 -12 -12 -12 -12 -12 -12 -11
-24 -23 -23 -22 -22 -22 -21 -21 -20 -20 -20 -20 -20 -19 -19 -19 -18 -18 -18 -18 -18 -18 -18 -18 -18 -19 -19 -19 -19 -18 -18 -18 -18 -18 -17 -16 -16 -15 -14 -14 -14 -14 -13 -13 -13 -13 -13 -13 -12 -12 -13 -13 -13 -13
-24 -24 -23 -23 -22 -22 -21 -21 -20 -20 -20 -20 -19 -19 -19 -19 -18 -18 -18 -18 -18 -18 -18 -18 -18 -17 -18 -18 -18 -18 -18 -17 -17 -17 -17 -16 -16 -15 -14 -15 -14 -15 -15 -14 -14 -13 -14 -13 -13 -13 -12 -13 -13 -13
-24 -24 -24 -23 -23 -22 -22 -21 -21 -20 -20 -19 -19 -19 -19 -19 -18 -18 -18 -18 -18 -18 -18 -18 -18 -18 -19 -18 -18 -18 -17 -18 -17 -17 -17 -16 -16 -16 -16 -16 -15 -14 -15 -14 -14 -14 -14 -14 -14 -13 -13 -13 -13 -13
-24 -24 -24 -23 -23 -22 -22 -21 -21 -20 -20 -20 -19 -19 -19 -19 -18 -18 -18 -18 -18 -18 -18 -18 -19 -19 -19 -19 -19 -18 -18 -18 -18 -18 -17 -16 -16 -17 -17 -16 -16 -15 -15 -15 -15 -15 -14 -14 -14 -15 -14 -14 -14 -14
-25 -25 -24 -24 -23 -23 -22 -22 -21 -20 -20 -20 -19 -19 -19 -19 -18 -18 -18 -18 -18 -18 -19 -19 -19 -19 -19 -19 -19 -19 -18 -18 -18 -17 -17 -17 -17 -17 -17 -16 -16 -16 -16 -16 -15 -15 -15 -14 -15 -14 -14 -15 -15 -15
-25 -25 -25 -24 -24 -23 -22 -22 -21 -20 -20 -20 -19 -19 -19 -19 -19 -19 -18 -18 -19 -19 -19 -19 -19 -19 -19 -19 -19 -19 -18 -18 -18 -17 -17 -16 -17 -17 -16 -16 -16 -16 -17 -17 -16 -16 -17 -15 -15 -14 -15 -15 -15 -14
-26 -25 -25 -24 -24 -23 -23 -22 -21 -21 -20 -20 -20 -20 -19 -19 -19 -19 -18 -18 -19 -19 -18 -19 -19 -19 -19 -19 -18 -18 -18 -18 -17 -17 -16 -16 -17 -17 -17 -17 -16 -17 -18 -18 -17 -16 -16 -15 -15 -15 -16 -15 -14 -15
-26 -25 -25 -25 -24 -23 -23 -22 -21 -21 -20 -20 -20 -20 -19 -19 -19 -18 -19 -19 -18 -18 -19 -19 -19 -19 -19 -18 -18 -18 -18 -17 -17 -17 -16 -16 -17 -16 -17 -16 -17 -17 -17 -17 -17 -15 -15 -16 -16 -16 -15 -14 -15 -16
-26 -25 -25 -25 -24 -23 -23 -22 -21 -21 -21 -20 -20 -20 -19 -19 -19 -19 -19 -19 -18 -18 -19 -19 -19 -18 -18 -18 -18 -17 -17 -17 -17 -16 -16 -16 -16 -16 -16 -16 -16 -16 -16 -16 -16 -16 -16 -15 -15 -15 -15 -16 -16 -16
-26 -26 -26 -25 -24 -23 -23 -22 -22 -21 -21 -20 -20 -20 -19 -19 -19 -19 -19 -18 -18 -18 -18 -19 -19 -18 -18 -18 -18 -17 -17 -17 -17 -16 -16 -16 -16 -16 -16 -16 -16 -16 -16 -16 -16 -15 -15 -15 -16 -15 -16 -16 -15 -15
-26 -26 -26 -25 -24 -23 -23 -22 -22 -21 -21 -20 -20 -19 -19 -19 -19 -19 -19 -19 -18 -18 -18 -18 -18 -18 -17 -17 -17 -17 -17 -17 -17 -16 -16 -16 -16 -16 -15 -15 -16 -16 -16 -16 -16 -16 -16 -15 -15 -15 -15 -15 -15 -15
-26 -26 -26 -25 -24 -23 -23 -22 -22 -21 -20 -20 -19 -19 -19 -19 -19 -19 -19 -18 -18 -18 -18 -18 -18 -17 -17 -17 -17 -17 -17 -16 -16 -16 -16 -15 -15 -15 -15 -15 -16 -16 -16 -16 -16 -16 -16 -15 -15 -15 -15 -15 -15 -15
-26 -26 -26 -25 -24 -23 -23 -22 -21 -21 -20 -19 -19 -19 -19 -19 -19 -18 -18 -18 -18 -17 -17 -17 -17 -17 -17 -16 -16 -16 -16 -16 -15 -15 -15 -15 -15 -15 -15 -15 -15 -15 -15 -16 -15 -16 -16 -16 -16 -16 -16 -16 -15 -15
-26 -26 -25 -24 -24 -23 -22 -21 -21 -20 -20 -20 -19 -19 -18 -18 -18 -18 -18 -17 -17 -17 -17 -17 -17 -16 -16 -16 -16 -16 -16 -16 -15 -15 -15 -15 -15 -15 -15 -14 -15 -15 -15 -15 -15 -15 -15 -15 -15 -16 -16 -16 -15 -16
-26 -25 -24 -24 -23 -22 -21 -21 -21 -20 -20 -19 -19 -18 -18 -18 -18 -18 -17 -17 -17 -17 -17 -16 -16 -16 -16 -16 -15 -15 -16 -15 -15 -15 -15 -15 -15 -15 -15 -15 -15 -15 -15 -15 -15 -15 -15 -16 -16 -16 -16 -16 -16 -16
-25 -24 -23 -23 -22 -22 -21 -21 -20 -19 -19 -19 -18 -18 -18 -18 -18 -17 -17 -17 -17 -16 -16 -16 -16 -16 -16 -16 -15 -15 -15 -15 -15 -15 -15 -15 -15 -14 -15 -15 -15 -15 -15 -15 -15 -15 -16 -16 -16 -16 -16 -16 -17 -17
-24 -24 -23 -22 -22 -21 -21 -20 -19 -19 -19 -19 -18 -18 -18 -18 -17 -17 -17 -17 -16 -16 -16 -16 -16 -16 -16 -16 -15 -15 -15 -15 -15 -15 -15 -15 -15 -15 -15 -15 -15 -16 -16 -16 -16 -16 -16 -16 -16 -16 -17 -17 -17 -17
-23 -22 -22 -21 -21 -20 -20 -20 -19 -19 -18 -18 -18 -18 -18 -18 -17 -17 -17 -17 -16 -16 -16 -16 -16 -16 -16 -16 -16 -16 -16 -15 -15 -15 -15 -15 -15 -15 -15 -16 -16 -16 -16 -16 -16 -17 -17 -17 -17 -17 -17 -17 -17 -17
-22 -22 -21 -21 -20 -20 -20 -19 -19 -19 -18 -18 -18 -18 -17 -17 -17 -17 -17 -17 -17 -17 -16 -16 -16 -16 -16 -16 -16 -16 -16 -16 -16 -16 -16 -16 -16 -16 -16 -16 -16 -16 -16 -16 -16 -16 -16 -17 -17 -17 -17 -17 -17 -17
-21 -21 -21 -20 -20 -20 -19 -19 -19 -18 -18 -18 -18 -18 -18 -17 -17 -17 -17 -17 -17 -17 -17 -17 -16 -16 -16 -16 -16 -16 -16 -16 -17 -17 -17 -17 -17 -16 -16 -16 -16 -16 -16 -16 -16 -16 -17 -17 -17 -17 -17 -17 -17 -17
-21 -21 -20 -20 -19 -19 -19 -19 -18 -18 -18 -18 -18 -18 -18 -17 -17 -17 -17 -18 -17 -17 -17 -17 -17 -17 -17 -17 -16 -17 -17 -17 -17 -17 -17 -17 -17 -17 -17 -17 -17 -17 -17 -17 -17 -17 -17 -17 -17 -17 -18 -18 -18 -18
-20 -20 -19 -19 -19 -19 -18 -18 -18 -18 -17 -17 -18 -17 -17 -17 -17 -17 -18 -17 -17 -17 -17 -17 -17 -17 -17 -17 -17 -17 -17 -17 -17 -17 -17 -17 -17 -17 -17 -17 -17 -17 -17 -17 -17 -17 -17 -18 -18 -18 -18 -18 -18 -18
-19 -19 -19 -19 -18 -18 -18 -18 -18 -18 -18 -18 -17 -17 -17 -18 -17 -17 -17 -17 -17 -17 -17 -17 -17 -17 -17 -17 -17 -17 -17 -17 -17 -17 -17 -17 -17 -17 -17 -17 -17 -17 -17 -17 -18 -18 -18 -18 -18 -18 -19 -19 -19 -19
-19 -19 -19 -19 -19 -18 -18 -18 -18 -19 -19 -18 -18 -18 -18 -18 -18 -17 -17 -17 -17 -17 -17 -17 -17 -17 -17 -17 -17 -17 -17 -17 -17 -17 -17 -17 -18 -18 -18 -17 -17 -17 -18 -18 -18 -18 -19 -18 -19 -19 -19 -19 -19 -19
-19 -19 -19 -19 -19 -19 -18 -18 -18 -19 -18 -18 -18 -18 -18 -18 -18 -18 -18 -18 -18 -18 -18 -18 -18 -18 -18 -18 -18 -17 -17 -18 -18 -18 -18 -18 -18 -18 -18 -18 -18 -18 -18 -18 -19 -19 -19 -19 -19 -19 -19 -19 -19 -19
-19 -19 -19 -19 -19 -19 -19 -19 -19 -19 -19 -19 -18 -18 -18 -18 -18 -18 -18 -18 -18 -18 -18 -18 -18 -18 -18 -18 -18 -18 -18 -18 -18 -19 -19 -19 -19 -19 -19 -19 -19 -19 -19 -19 -19 -19 -19 -19 -19 -19 -19 -19 -20 -20
Height
5645 5647 5649 5652 5654 5656 5657 5659 5660 5661 5663 5664 5666 5667 5667 5667 5667 5667 5667 5666 5667 5668 5668 5670 5672 5676 5680 5689 5695 5702 5710 5711 5720 5729 5738 5745 5749 5756 5760 5767 5768 5776 5779 5784 5790 5792 5795 5794 5802 5798 5800 5804 5806 5806
5638 5640 5642 5645 5648 5651 5653 5654 5656 5657 5660 5661 5663 5663 5663 5664 5664 5663 5663 5663 5663 5662 5662 5661 5661 5665 5670 5677 5684 5692 5698 5702 5709 5718 5726 5733 5737 5744 5751 5755 5758 5763 5769 5774 5779 5780 5784 5790 5790 5791 5793 5797 5800 5800
5632 5633 5636 5638 5641 5644 5647 5650 5652 5653 5655 5658 5659 5661 5661 5662 5662 5661 5660 5659 5658 5656 5655 5653 5652 5656 5662 5666 5672 5681 5688 5696 5700 5707 5713 5720 5725 5733 5738 5745 5749 5755 5762 5766 5770 5774 5779 5783 5783 5785 5783 5786 5789 5791
5624 5627 5629 5632 5634 5637 5641 5644 5646 5649 5651 5653 5656 5657 5658 5658 5658 5658 5657 5656 5655 5653 5651 5651 5648 5650 5654 5658 5664 5670 5677 5689 5695 5696 5703 5711 5719 5724 5731 5736 5743 5747 5754 5758 5761 5765 5770 5772 5773 5776 5778 5745 5770 5782
5615 5618 5622 5625 5628 5631 5635 5638 5641 5643 5646 5649 5651 5653 5654 5655 5655 5655 5655 5654 5653 5652 5650 5648 5646 5646 5648 5652 5658 5662 5670 5675 5681 5690 5695 5699 5705 5715 5721 5728 5734 5741 5748 5751 5754 5759 5760 5766 5767 5768 5768 5767 5771 5772
5606 5610 5614 5617 5621 5625 5629 5632 5636 5638 5641 5644 5646 5649 5650 5652 5652 5652 5653 5653 5651 5649 5647 5647 5646 5645 5646 5648 5652 5658 5662 5665 5672 5681 5687 5695 5696 5704 5713 5717 5723 5730 5736 5742 5746 5748 5752 5757 5757 5758 5760 5762 5761 5765
5597 5601 5606 5610 5614 5618 5622 5626 5630 5633 5636 5639 5641 5644 5647 5648 5649 5650 5650 5650 5649 5648 5646 5645 5645 5646 5646 5647 5648 5651 5658 5663 5668 5676 5683 5689 5693 5697 5704 5710 5717 5721 5727 5733 5736 5740 5742 5745 5746 5747 5748 5752 5758 5759
5589 5593 5597 5602 5606 5611 5615 5619 5623 5627 5631 5634 5637 5640 5643 5645 5646 5647 5647 5647 5647 5647 5645 5643 5644 5645 5646 5647 5650 5652 5653 5660 5666 5672 5675 5679 5684 5687 5694 5702 5707 5709 5715 5722 5727 5730 5732 5735 5737 5738 5739 5742 5746 5749
5581 5584 5589 5594 5599 5604 5609 5613 5617 5621 5625 5629 5632 5636 5639 5642 5643 5644 5644 5644 5644 5646 5644 5643 5644 5645 5646 5648 5650 5654 5657 5660 5663 5665 5670 5672 5676 5677 5684 5690 5695 5699 5704 5710 5714 5718 5722 5726 5728 5731 5736 5735 5737 5738
5574 5577 5581 5586 5591 5597 5603 5608 5612 5616 5620 5624 5629 5632 5635 5638 5640 5641 5642 5642 5643 5643 5642 5643 5643 5643 5645 5646 5648 5650 5653 5657 5660 5664 5663 5665 5670 5672 5674 5677 5681 5687 5690 5695 5702 5707 5711 5718 5722 5724 5728 5729 5730 5730
5568 5571 5575 5579 5584 5590 5596 5602 5607 5611 5615 5620 5624 5628 5632 5634 5637 5638 5639 5640 5641 5641 5641 5641 5641 5642 5643 5645 5645 5647 5648 5651 5655 5657 5657 5659 5663 5665 5665 5668 5671 5675 5679 5684 5689 5692 5698 5706 5713 5719 5722 5725 5726 5725
5561 5566 5569 5574 5579 5585 5591 5597 5603 5608 5612 5616 5620 5624 5628 5631 5634 5636 5637 5638 5639 5639 5639 5640 5641 5641 5642 5642 5642 5644 5646 5649 5651 5653 5654 5653 5653 5655 5656 5660 5663 5667 5672 5675 5679 5683 5687 5696 5705 5709 5713 5716 5714 5718
5556 5561 5565 5570 5575 5580 5586 5593 5598 5604 5609 5613 5617 5622 5625 5629 5631 5634 5635 5636 5637 5637 5638 5639 5640 5641 5641 5641 5642 5643 5644 5646 5648 5649 5650 5651 5651 5652 5656 5657 5657 5659 5663 5667 5671 5676 5680 5685 5693 5692 5694 5702 5709 5711
5551 5556 5561 5566 5571 5577 5582 5589 5595 5601 5607 5612 5615 5619 5623 5626 5629 5631 5633 5634 5635 5635 5637 5639 5639 5640 5640 5640 5641 5642 5644 5645 5647 5648 5650 5651 5652 5652 5652 5651 5652 5654 5657 5661 5665 5671 5677 5682 5689 5692 5692 5696 5701 5703
5546 5552 5557 5562 5568 5574 5579 5586 5592 5599 5605 5610 5614 5617 5620 5624 5627 5629 5632 5633 5634 5635 5637 5638 5638 5638 5639 5640 5640 5642 5643 5644 5645 5647 5647 5648 5649 5648 5648 5648 5651 5654 5655 5658 5663 5672 5679 5681 5685 5688 5689 5691 5694 5694
5544 5549 5554 5559 5565 5571 5578 5584 5591 5597 5603 5608 5612 5616 5620 5623 5626 5628 5631 5632 5634 5635 5636 5636 5636 5636 5638 5639 5640 5641 5643 5643 5644 5644 5645 5646 5646 5644 5645 5648 5651 5653 5656 5659 5665 5670 5672 5676 5679 5683 5686 5687 5687 5686
5542 5548 5552 5557 5563 5570 5577 5584 5591 5597 5603 5608 5612 5616 5619 5622 5626 5629 5631 5633 5634 5635 5635 5634 5635 5636 5638 5638 5640 5641 5643 5643 5642 5643 5642 5642 5643 5643 5643 5646 5647 5647 5650 5657 5661 5666 5671 5674 5676 5679 5682 5681 5681 5682
5541 5547 5551 5557 5563 5570 5577 5584 5591 5597 5602 5607 5611 5616 5621 5624 5627 5629 5631 5633 5634 5634 5634 5634 5634 5636 5637 5639 5641 5641 5641 5641 5641 5641 5641 5640 5641 5641 5642 5640 5645 5648 5651 5655 5659 5663 5666 5668 5670 5673 5674 5675 5677 5679
5543 5548 5553 5559 5565 5571 5579 5586 5592 5598 5604 5609 5613 5617 5622 5625 5627 5629 5631 5633 5633 5634 5634 5634 5635 5637 5638 5639 5640 5640 5640 5640 5640 5640 5640 5640 5639 5639 5640 5643 5644 5646 5649 5652 5655 5658 5661 5664 5665 5667 5669 5671 5672 5675
5546 5551 5557 5562 5568 5574 5581 5588 5594 5600 5606 5612 5617 5621 5623 5625 5628 5630 5632 5633 5633 5634 5634 5634 5635 5636 5637 5638 5639 5639 5640 5640 5640 5640 5640 5638 5639 5639 5640 5641 5643 5645 5648 5650 5653 5657 5659 5661 5663 5663 5665 5667 5669 5671
5551 5556 5562 5566 5573 5579 5586 5592 5598 5605 5610 5615 5619 5622 5625 5627 5629 5631 5632 5633 5634 5633 5634 5634 5635 5635 5636 5636 5638 5639 5640 5640 5641 5641 5641 5641 5640 5639 5640 5641 5644 5647 5650 5652 5654 5656 5658 5659 5661 5662 5664 5666 5668 5670
5557 5562 5567 5573 5579 5585 5592 5598 5602 5608 5615 5618 5621 5624 5628 5630 5631 5633 5634 5634 5634 5634 5634 5634 5635 5635 5636 5638 5639 5641 5641 5642 5643 5643 5643 5644 5645 5644 5644 5645 5647 5650 5652 5654 5655 5657 5659 5661 5663 5665 5666 5669 5671 5674
5565 5570 5574 5580 5586 5592 5598 5603 5609 5614 5618 5621 5625 5628 5631 5633 5634 5635 5636 5636 5636 5637 5637 5637 5638 5638 5639 5641 5642 5644 5644 5645 5646 5647 5648 5649 5650 5650 5649 5650 5651 5654 5656 5658 5660 5662 5664 5666 5667 5669 5671 5673 5675 5676
5571 5578 5583 5588 5594 5600 5605 5610 5614 5618 5622 5626 5629 5632 5634 5636 5637 5639 5640 5640 5641 5640 5641 5642 5643 5643 5644 5645 5646 5646 5646 5648 5651 5652 5653 5654 5656 5657 5658 5660 5661 5662 5664 5666 5667 5668 5669 5671 5672 5674 5675 5676 5677 5678
5585 5590 5594 5598 5603 5608 5612 5616 5620 5624 5628 5631 5634 5636 5638 5640 5643 5644 5644 5644 5645 5645 5646 5647 5648 5649 5651 5652 5653 5653 5654 5656 5657 5658 5660 5661 5662 5663 5665 5666 5667 5668 5669 5670 5671 5672 5674 5674 5675 5676 5677 5677 5677 5676
5596 5600 5605 5608 5612 5616 5620 5623 5627 5630 5633 5636 5638 5640 5641 5646 5648 5648 5649 5651 5653 5653 5653 5654 5654 5655 5657 5658 5660 5661 5661 5662 5663 5664 5665 5666 5667 5669 5670 5671 5672 5673 5673 5674 5675 5675 5675 5675 5675 5675 5674 5673 5672 5671
5608 5612 5615 5618 5621 5624 5627 5630 5633 5635 5637 5640 5641 5644 5648 5651 5653 5654 5655 5657 5659 5659 5660 5661 5662 5662 5663 5664 5665 5666 5667 5668 5669 5671 5671 5672 5673 5674 5675 5676 5676 5677 5676 5676 5676 5675 5675 5674 5673 5672 5671 5670 5667 5665
5620 5622 5625 5628 5630 5632 5634 5636 5638 5640 5642 5644 5646 5648 5653 5656 5658 5659 5661 5663 5663 5665 5666 5666 5667 5668 5669 5670 5671 5672 5673 5673 5674 5675 5675 5676 5677 5677 5677 5678 5677 5677 5676 5675 5675 5674 5673 5672 5670 5668 5666 5663 5660 5657
5629 5632 5634 5636 5638 5639 5640 5642 5643 5645 5647 5649 5651 5656 5658 5660 5662 5664 5666 5667 5668 5668 5670 5671 5672 5673 5674 5675 5675 5676 5677 5677 5678 5678 5678 5678 5678 5678 5677 5677 5677 5676 5675 5673 5672 5670 5668 5666 5664 5662 5660 5657 5655 5651
5638 5640 5642 5643 5644 5645 5646 5648 5649 5651 5654 5656 5660 5662 5664 5666 5667 5668 5670 5671 5673 5673 5674 5675 5676 5676 5677 5677 5678 5678 5679 5679 5679 5679 5678 5678 5678 5677 5676 5675 5674 5672 5670 5668 5667 5666 5665 5662 5660 5657 5654 5652 5648 5645
5645 5647 5650 5650 5652 5653 5654 5654 5655 5657 5659 5662 5664 5667 5668 5670 5671 5672 5673 5674 5675 5676 5677 5677 5678 5679 5679 5679 5679 5679 5679 5679 5678 5678 5677 5677 5676 5675 5674 5672 5671 5669 5668 5667 5666 5664 5661 5659 5656 5653 5650 5646 5643 5639
5652 5652 5654 5656 5658 5659 5660 5661 5661 5663 5665 5667 5669 5670 5672 5673 5674 5675 5676 5677 5677 5678 5678 5678 5679 5679 5679 5678 5678 5677 5677 5676 5675 5675 5674 5674 5673 5672 5671 5670 5668 5667 5667 5665 5664 5661 5658 5655 5652 5648 5645 5642 5637 5633
5655 5656 5658 5660 5661 5663 5664 5666 5666 5668 5670 5671 5672 5672 5674 5675 5675 5676 5677 5677 5678 5678 5678 5677 5678 5677 5676 5675 5674 5673 5673 5673 5672 5671 5671 5670 5670 5669 5668 5667 5667 5666 5665 5663 5661 5658 5654 5651 5649 5645 5641 5636 5631 5626
Wind_Speed
21 22 23 24 22 17 16 15 12 12 11 10 9 8 6 6 6 8 9 12 14 17 22 26 33 36 39 35 40 47 48 53 57 57 50 45 45 41 37 34 37 34 35 36 32 34 29 32 22 34 35 34 33 33
20 20 21 23 23 20 18 17 14 13 12 10 9 7 7 6 6 7 7 7 11 14 19 23 32 36 41 39 41 40 42 43 52 55 54 50 43 41 41 39 42 39 39 35 37 41 40 40 42 40 40 39 37 34
22 20 19 21 22 23 20 18 16 15 14 11 9 7 6 6 4 7 7 7 10 12 14 13 22 33 36 38 42 51 48 44 43 42 51 55 53 51 49 47 47 44 37 37 35 36 38 35 38 39 41 47 43 40
25 23 21 20 21 22 21 20 18 18 16 13 10 8 6 5 6 5 7 9 9 11 12 11 15 22 29 33 34 44 45 38 40 43 41 48 51 49 50 48 47 45 37 40 42 38 33 30 33 36 35 21 42 37
26 26 24 22 21 21 21 21 20 19 19 17 13 10 6 6 7 8 7 8 10 9 9 10 10 16 27 33 37 42 47 47 35 48 42 44 50 49 50 47 47 47 45 36 34 40 44 37 38 42 42 43 19 23
25 26 26 25 23 22 21 21 20 19 20 20 18 14 10 8 8 9 10 9 7 8 8 7 9 9 14 29 36 41 50 55 44 40 33 47 29 48 53 51 49 49 48 43 49 34 40 44 44 36 36 24 23 25
25 26 26 25 25 25 24 23 22 21 21 20 20 17 14 12 10 11 11 10 8 8 10 9 8 9 9 12 22 36 41 31 33 28 32 36 41 41 42 48 49 50 49 54 37 46 44 45 49 45 45 41 26 30
22 24 25 26 25 23 24 25 24 23 21 21 20 19 17 14 13 12 12 11 9 8 10 8 6 7 11 13 15 19 25 31 38 40 40 37 41 45 47 47 46 53 53 55 58 56 50 50 53 50 42 40 37 33
19 21 24 25 26 25 22 21 22 23 23 21 21 20 18 16 14 12 11 10 9 8 7 4 2 10 8 10 12 16 21 24 27 32 37 44 47 50 48 47 49 53 56 48 49 51 52 52 54 54 44 36 38 36
18 20 22 25 25 26 26 22 20 20 21 21 20 18 18 16 15 13 11 9 7 5 6 5 7 10 9 8 10 11 14 16 19 21 28 33 32 32 28 36 42 48 54 59 59 55 58 52 43 47 40 38 39 36
19 18 19 21 25 25 24 25 21 19 18 18 18 19 16 14 13 12 10 8 7 6 6 2 2 5 7 5 8 12 12 13 10 11 15 18 19 22 24 30 30 32 37 49 53 59 65 63 61 45 33 30 23 14
21 15 14 18 20 24 23 23 23 19 18 17 17 16 15 13 11 11 8 7 7 4 3 5 4 5 1 4 5 5 8 8 9 8 6 6 14 21 24 25 27 29 29 34 38 42 52 56 45 42 50 37 36 18
22 20 16 15 19 22 24 23 25 20 17 16 16 15 14 13 11 9 9 8 5 4 7 8 1 2 3 2 3 2 4 5 2 1 1 2 1 3 6 15 20 24 27 29 29 27 36 37 39 44 28 24 23 22
23 20 19 18 18 22 25 25 25 22 18 16 16 13 14 13 11 9 9 7 5 9 9 6 3 4 3 2 3 3 2 2 4 3 1 1 1 4 9 13 15 18 19 20 29 16 21 25 34 34 28 23 21 21
23 22 21 20 20 23 26 26 25 24 20 16 15 15 15 13 12 10 6 5 5 6 5 6 7 6 6 6 4 3 6 7 5 4 8 7 8 10 9 5 8 12 18 23 23 19 17 18 19 22 20 24 26 21
25 18 17 20 21 25 26 26 25 24 21 19 16 15 14 13 12 9 8 9 8 7 7 6 6 7 5 3 5 3 4 8 7 6 8 10 11 12 13 10 13 18 21 17 18 15 17 17 17 18 20 22 19 18
22 15 15 20 22 26 27 26 26 24 22 19 16 15 16 15 12 9 8 9 6 7 6 5 6 5 5 5 5 4 5 7 6 8 8 10 7 9 7 13 12 9 16 20 19 19 20 19 18 19 19 18 15 18
23 16 18 21 24 27 27 27 26 25 24 21 18 16 13 13 8 10 9 6 6 3 1 1 4 7 7 4 0 7 7 9 3 4 6 7 8 8 7 8 9 11 17 20 19 19 19 19 19 20 18 15 16 16
20 17 23 23 27 28 27 28 28 26 23 19 18 15 11 9 12 10 5 4 1 1 4 1 2 6 4 3 4 4 2 1 2 4 5 3 3 4 8 5 9 10 12 15 18 19 21 20 17 15 15 16 17 16
18 23 25 25 28 28 28 29 28 26 23 19 14 10 9 12 11 7 5 3 2 1 3 5 5 7 7 5 3 2 3 3 2 3 4 3 4 4 3 7 8 7 7 11 14 12 12 12 11 11 12 12 12 13
21 23 24 26 27 28 30 29 27 24 21 17 13 13 14 11 8 5 4 3 3 5 6 5 3 8 9 3 7 6 4 3 4 7 9 11 10 10 6 10 13 12 12 8 8 8 10 10 9 10 13 14 15 16
21 25 26 28 29 30 29 28 26 23 20 16 16 14 10 8 7 7 4 2 2 5 5 8 13 10 11 14 12 5 4 2 3 9 8 10 9 10 9 12 13 11 9 7 5 6 11 16 18 18 17 17 16 16
26 26 29 30 30 30 29 27 23 21 18 17 15 13 11 12 10 11 14 15 13 12 15 18 15 12 14 13 11 10 7 8 10 11 12 15 14 18 21 20 20 18 18 19 19 18 16 15 16 15 14 13 11 10
30 29 29 29 29 28 28 25 22 19 18 17 15 16 15 15 18 14 15 18 24 22 20 18 17 20 21 15 14 14 16 17 15 13 14 17 19 18 22 21 21 20 20 17 16 14 13 11 10 9 8 7 4 2
32 31 30 29 29 28 25 22 19 20 19 18 17 16 18 19 18 22 25 25 26 27 25 25 22 21 20 20 20 21 23 23 21 21 20 17 12 13 15 15 14 13 10 10 10 9 8 7 5 2 2 4 8 13
31 31 30 30 27 24 22 21 21 21 20 18 20 22 21 20 21 23 27 25 23 21 21 22 24 21 22 21 20 21 19 18 17 16 16 16 14 13 12 12 11 10 8 6 4 2 2 4 8 11 13 16 18 22
32 30 28 25 23 22 21 20 19 18 18 20 21 20 19 23 23 24 25 24 22 19 21 22 21 22 19 18 19 19 19 18 16 16 15 15 14 13 11 11 9 8 7 4 3 1 4 7 10 13 17 21 23 25
26 24 24 23 22 20 17 17 17 15 15 15 19 23 22 26 22 22 25 20 18 20 17 18 20 19 16 14 13 12 12 11 11 10 11 12 11 9 7 5 4 4 4 5 7 9 11 14 16 18 20 21 22 23
23 24 24 22 21 21 19 16 13 14 18 25 24 23 25 26 24 21 17 13 13 17 15 15 15 15 14 13 12 11 10 9 8 6 4 3 2 2 1 3 6 8 11 13 15 16 16 15 14 14 17 19 22 25
23 22 22 22 21 21 21 21 22 23 22 23 20 16 14 12 10 10 11 13 14 16 15 13 12 11 10 9 8 7 5 3 2 2 3 4 6 8 10 11 13 15 17 16 13 12 15 17 18 20 21 23 24 26
20 21 18 17 15 16 17 19 20 18 17 15 14 12 10 10 9 9 10 10 8 9 9 8 7 6 5 3 1 0 2 4 7 8 9 10 11 11 13 14 15 10 9 11 13 14 14 16 19 21 24 27 29 31
16 15 13 11 9 10 13 17 17 16 15 13 13 12 11 10 8 7 6 5 6 7 4 3 3 2 4 7 9 10 12 13 14 14 13 12 13 14 14 9 8 9 11 11 12 15 19 21 24 27 29 31 33 35
13 11 9 7 7 8 10 11 12 12 11 10 8 7 5 4 4 3 2 2 3 4 5 7 9 11 12 13 15 15 15 15 15 15 15 13 10 7 6 6 7 8 9 13 16 20 23 25 27 29 31 34 37 39
Wind_Direction
261 255 252 247 252 257 253 252 251 242 244 245 250 260 285 327 311 287 284 261 252 253 254 247 238 232 231 228 229 230 228 231 233 228 226 228 232 233 232 233 225 227 236 237 240 240 237 220 227 240 243 249 250 262
261 253 253 247 248 248 249 248 244 239 238 236 242 256 268 286 324 308 294 292 272 270 266 256 238 232 229 224 207 215 221 226 233 230 225 222 226 227 229 220 226 224 225 224 231 232 232 234 243 249 253 254 256 259
257 252 249 246 241 239 243 242 239 236 235 233 234 242 255 262 302 339 324 309 317 296 298 281 238 230 228 228 217 210 218 224 229 236 231 229 224 222 225 220 223 228 225 226 230 236 240 244 248 252 260 256 251 251
251 252 245 241 240 237 237 238 234 231 229 227 228 233 246 263 268 309 343 333 316 311 299 338 276 243 221 220 219 213 210 211 200 218 231 232 229 226 227 227 227 224 224 228 236 234 234 247 247 256 258 221 237 243
248 246 247 245 238 235 235 234 234 229 226 223 224 230 240 261 268 274 309 333 334 312 299 263 289 237 228 223 227 205 196 199 193 217 229 225 226 227 227 230 228 222 218 222 235 247 239 243 245 261 253 269 231 243
247 243 242 242 239 233 232 233 234 233 231 227 225 229 241 260 277 279 274 295 317 327 303 261 231 235 229 221 223 225 225 232 217 208 210 213 209 224 226 228 228 228 228 228 232 223 233 245 249 235 251 247 233 287
245 242 239 238 237 233 231 232 234 237 236 232 231 232 237 251 272 288 282 276 282 310 319 278 237 219 204 205 219 222 227 237 238 236 236 220 224 226 228 232 235 231 231 229 229 228 243 237 241 257 266 264 274 266
243 240 238 234 232 233 232 233 234 234 234 233 231 231 235 244 258 279 288 278 274 295 316 293 243 212 209 198 187 207 234 237 234 232 233 232 232 239 236 235 234 236 234 232 235 238 242 245 248 256 263 262 260 268
242 236 233 232 229 227 226 227 229 231 232 232 230 230 234 241 252 267 278 273 271 290 313 305 190 182 243 216 204 200 208 218 226 234 240 239 239 240 241 240 233 232 232 229 233 238 237 242 243 248 254 255 265 270
247 239 230 226 227 227 225 223 222 222 226 229 228 230 233 239 247 258 266 262 252 271 287 286 223 219 227 223 223 224 218 218 219 223 228 233 235 241 243 238 239 234 232 233 234 234 233 232 237 241 249 262 266 258
234 231 226 222 218 219 219 218 218 218 219 221 224 226 230 237 240 245 248 235 240 266 293 267 198 184 179 193 222 226 225 225 228 241 244 241 235 230 232 227 230 232 235 235 235 237 235 236 240 247 257 244 232 222
213 211 210 212 211 207 208 207 207 211 211 212 217 224 228 232 232 234 231 230 247 263 205 156 110 155 229 283 239 216 222 228 231 239 255 223 217 212 220 224 224 223 229 234 235 239 242 238 239 240 246 246 268 285
204 209 213 209 205 200 197 197 197 199 201 202 207 215 220 219 221 216 210 225 244 223 185 195 267 261 264 205 137 138 174 203 169 97 252 46 213 192 212 221 219 227 224 226 236 227 228 238 219 221 249 266 266 266
206 212 215 210 205 196 191 191 191 191 194 194 195 204 206 207 210 207 220 257 281 192 199 209 223 319 247 231 218 260 250 180 167 173 198 181 240 217 226 231 227 231 213 220 205 212 215 223 227 241 242 245 257 258
204 199 202 206 204 195 188 187 187 186 187 185 188 198 196 198 203 204 205 206 206 204 215 242 268 265 236 235 245 235 225 202 179 263 266 295 289 276 210 244 206 211 195 181 194 185 183 192 206 221 237 254 259 261
175 172 186 195 198 191 185 184 184 182 181 182 188 193 191 193 193 193 186 199 213 214 247 276 285 240 225 215 191 214 244 220 272 270 279 272 279 306 250 209 207 192 179 185 185 188 193 208 223 233 244 249 258 265
169 175 187 185 188 183 180 181 178 178 178 181 185 187 183 184 187 180 196 206 211 252 272 277 199 143 155 158 157 190 256 297 268 275 298 294 281 267 271 227 227 236 184 199 194 214 220 222 228 238 244 254 257 257
167 171 174 174 177 172 174 176 173 173 175 180 179 179 185 181 178 187 198 212 245 270 240 93 181 201 192 166 291 302 302 310 284 303 292 285 282 288 252 233 242 221 206 214 220 218 231 237 246 254 255 250 246 244
154 165 160 161 165 164 169 170 169 172 173 169 173 176 173 189 187 189 202 213 206 62 175 222 81 155 153 239 306 314 326 27 26 13 1 328 298 236 184 213 208 217 220 216 220 229 238 248 250 247 245 247 243 236
144 152 152 155 157 160 164 164 166 166 164 165 163 165 177 165 170 181 183 187 213 210 267 264 255 229 233 234 240 132 87 84 94 58 47 60 130 151 193 193 175 155 188 212 217 217 218 216 216 243 243 224 204 211
131 142 146 150 152 156 157 161 158 155 158 156 155 154 159 165 160 158 172 174 240 257 272 264 242 218 220 148 105 84 90 102 96 92 86 79 87 81 123 162 163 158 153 155 166 179 195 216 208 191 169 164 163 158
132 141 144 145 147 150 153 153 154 154 149 150 155 157 155 140 129 128 146 219 76 83 53 68 91 77 93 119 122 114 109 85 28 105 96 122 104 55 107 116 130 136 134 140 153 170 169 152 142 134 128 132 137 149
137 140 138 141 146 148 148 148 147 146 149 149 144 140 129 119 116 110 91 86 78 80 96 104 86 88 114 120 134 98 83 105 115 101 108 107 106 92 99 105 105 105 110 121 126 128 128 128 132 134 140 146 148 152
131 131 133 137 140 140 140 143 146 147 140 136 135 124 112 112 99 94 93 101 97 98 105 115 99 106 97 96 91 86 106 106 119 115 98 117 113 109 104 102 105 111 115 117 119 121 125 130 135 142 146 148 165 253
122 125 128 130 132 136 139 139 136 133 132 136 126 122 121 112 118 113 99 92 94 92 94 99 106 108 106 96 95 101 115 112 113 118 114 119 115 122 126 115 107 102 107 122 123 121 107 98 88 39 290 279 291 299
118 121 123 126 126 128 132 128 128 130 131 126 120 117 115 126 116 104 92 87 91 94 84 89 96 104 115 105 104 104 104 102 101 102 107 107 110 116 106 93 88 87 90 90 78 43 10 324 313 307 301 296 293 291
113 116 119 122 124 123 123 126 129 129 128 121 113 113 137 129 120 106 96 99 97 97 101 103 104 98 91 105 104 97 99 100 102 101 99 98 96 95 96 91 89 89 89 87 68 339 290 280 280 283 286 288 291 294
113 114 114 113 114 116 115 118 124 129 132 125 125 122 136 135 130 121 117 117 113 112 107 104 109 112 111 108 107 105 105 104 106 106 106 108 106 98 93 86 61 30 3 343 324 315 312 310 308 308 308 309 310 310
111 114 115 111 109 106 105 109 122 127 125 123 123 137 143 133 122 121 118 117 125 114 110 101 104 109 111 114 114 114 109 100 102 109 109 98 79 62 26 343 338 337 333 328 324 320 320 324 332 336 332 327 324 320
119 117 117 117 111 105 103 103 104 110 119 127 129 122 124 131 136 136 137 127 117 102 100 102 106 106 105 105 101 101 96 78 55 21 2 339 331 332 334 334 335 331 329 330 340 351 346 344 342 340 337 334 332 330
126 121 121 112 104 102 103 106 110 111 114 124 127 122 120 123 121 126 137 148 152 133 121 121 106 95 97 101 96 308 301 303 306 306 305 305 310 320 326 326 325 331 344 347 354 354 348 348 347 346 346 344 343 340
122 120 126 122 109 105 114 110 108 109 114 117 120 118 113 115 119 127 139 154 157 160 171 179 188 236 284 295 299 294 290 289 291 293 295 300 309 316 320 323 329 339 346 358 0 353 351 354 352 350 347 344 340 337
122 118 113 117 133 144 142 141 137 137 138 137 133 130 135 142 141 138 160 198 225 248 262 264 274 283 286 287 288 285 284 286 286 288 294 301 307 310 301 314 334 347 354 355 353 354 352 348 346 342 341 341 340 337